Location: Podia
(1.5569°N, 32.3469°E)
Time: 14:10:17
(UTC+00:00)

IRS-1A Rocket - Pass Details

Date: 01 June 2020
Orbit: 851 x 931 km, 99.2° (Epoch: 04 July)

Event Time Altitude Azimuth Distance (km) Brightness Sun altitude
Exits shadow 18:00:00 78° 15° (NNE) 942 4.3 -29.5°
Drops below altitude 10° 18:05:26 10° 349° (N) 2,589 7.1 -30.7°
Sets 18:07:49 0° 348° (NNW) 3,518 7.9 -31.2°
